RH
24 21 28 30 27 34 41 45 56 54 60 70 92 66 64 38 18 29 18 20 13 13 10 10 10 11 10 7 10 14 20 22 29 30 27 18 20 20 17 22 21 19 18
55 58 45 42 48 42 40 47 55 52 72 92 87 87 72 66 33 24 28 29 20 20 11 10 10 10 11 10 8 9 12 17 25 25 23 23 18 12 14 14 14 13 12
91 66 56 57 61 63 43 39 49 51 47 70 66 76 80 63 61 37 35 32 36 23 17 13 16 12 15 12 12 13 15 18 21 21 20 19 18 15 18 16 13 10 11
97 96 80 78 73 69 68 62 55 52 38 42 55 60 60 56 65 53 45 29 25 30 30 14 15 19 15 12 11 12 13 15 17 19 19 17 16 14 15 14 13 14 14
97 97 97 98 95 93 75 63 68 56 52 44 51 51 50 44 44 66 50 54 43 27 30 24 14 14 13 10 10 14 13 12 13 13 13 13 13 10 10 10 12 12 12
95 97 96 97 95 96 97 95 89 92 82 62 59 52 42 44 41 49 51 47 52 47 32 24 23 14 15 12 9 12 19 17 14 12 12 13 14 16 16 14 8 9 8
92 93 97 97 97 97 96 97 96 96 94 90 66 65 44 39 39 43 61 54 38 38 51 48 33 32 27 14 10 8 7 8 10 9 8 8 9 9 11 13 12 13 13
30 57 70 94 95 97 96 96 97 96 96 92 88 67 66 51 37 40 44 59 56 38 30 37 37 32 29 22 10 10 9 8 7 8 10 10 12 15 20 23 22 20 24
19 14 10 12 35 60 96 97 97 97 96 92 93 89 66 64 62 67 52 51 47 45 41 38 35 33 34 33 20 12 8 9 8 8 8 9 8 9 9 12 15 17 20
22 19 23 24 22 16 48 97 96 97 97 96 96 92 78 72 53 56 58 52 62 54 34 30 34 35 31 31 36 29 18 13 11 13 14 14 13 13 11 9 7 6 7
19 22 21 22 21 18 14 24 78 91 94 96 97 96 84 66 66 66 65 52 41 44 72 53 31 29 26 22 20 21 22 24 25 24 22 20 19 18 18 14 10 7 6
30 22 18 13 11 10 10 10 12 25 26 39 76 86 96 95 84 62 64 56 57 56 45 51 66 52 28 23 23 18 18 16 15 17 20 22 21 18 17 15 14 14 13
34 27 23 21 17 14 11 9 8 9 9 10 19 40 66 69 95 96 73 49 41 47 52 42 49 53 57 53 34 22 18 16 16 17 21 21 21 20 18 17 14 12 11
28 26 23 24 24 22 18 16 14 9 9 9 8 9 11 16 32 41 79 80 73 44 49 55 48 35 34 43 45 43 35 23 17 16 18 19 19 18 17 15 14 12 11
34 33 34 31 28 28 28 25 21 19 15 14 14 11 10 10 10 11 27 49 37 56 71 60 49 55 54 45 33 28 40 46 42 33 21 18 18 18 16 14 13 11 9
45 45 42 40 40 39 38 37 34 31 26 21 18 18 17 14 14 11 10 11 23 18 17 48 55 50 48 36 46 52 39 27 31 37 42 34 26 22 19 16 14 13 11
10 8 8 11 15 20 27 30 33 39 39 37 33 28 26 28 23 16 13 11 11 9 8 9 17 41 30 21 20 34 48 60 56 38 47 61 54 44 30 27 31 33 30
9 9 9 8 8 8 8 6 6 7 9 20 28 31 32 32 33 33 27 14 12 11 10 10 9 8 14 24 28 32 44 50 46 48 64 69 73 73 71 71 72 64 69
19 16 13 11 10 9 8 7 6 6 5 5 5 5 11 17 21 23 26 29 27 19 14 12 10 11 10 10 12 32 40 45 48 58 68 80 81 83 82 92 94 77 96
9 8 8 8 8 8 7 7 6 6 5 5 4 4 4 4 5 9 15 18 20 22 25 22 17 10 9 10 10 10 15 32 56 56 46 36 58 76 78 68 85 82 86
8 9 10 10 10 9 8 8 8 9 8 6 5 4 4 3 3 3 3 6 11 14 16 18 22 21 15 10 9 10 10 9 8 15 17 26 44 65 63 70 72 78 76
11 11 11 13 15 12 11 11 10 7 6 5 5 5 4 3 3 3 3 3 3 5 8 10 13 15 18 18 15 12 8 9 11 9 10 11 12 24 24 33 58 73 80
29 26 24 22 19 17 18 17 12 9 8 8 7 6 6 5 3 2 2 3 3 3 4 5 7 9 11 13 15 16 14 12 10 9 10 10 9 8 9 10 20 45 68
45 36 27 22 20 18 16 13 12 11 9 8 8 8 6 4 3 3 2 2 2 2 3 3 3 4 6 8 9 11 13 14 14 14 12 9 9 10 10 10 10 10 27
26 23 23 22 22 21 19 16 14 11 10 8 7 6 5 4 3 3 2 2 2 2 2 2 2 3 3 4 5 6 8 10 11 12 13 15 14 13 13 13 13 11 11
58 45 40 36 29 23 18 14 12 11 9 6 5 4 4 4 4 3 3 3 2 2 2 2 2 2 3 3 3 4 4 6 7 7 9 10 12 15 15 16 17 17 16
Wind_Speed
22 23 24 24 22 19 18 17 16 16 16 13 16 12 10 8 9 10 10 11 12 12 12 12 10 10 10 11 14 15 14 12 10 12 13 10 10 14 13 14 13 16 17
24 25 24 26 25 23 21 20 18 19 18 19 16 17 11 11 10 11 12 13 14 13 14 14 12 11 11 11 13 14 16 16 15 16 16 14 16 13 11 15 15 18 18
27 28 27 26 27 26 24 23 22 21 22 21 20 18 15 15 13 13 14 13 14 15 15 15 15 14 13 14 14 14 17 18 17 17 17 17 18 15 15 17 19 18 18
29 32 33 29 29 29 28 26 25 25 24 22 22 20 20 20 16 16 17 16 16 18 17 17 17 17 17 16 17 17 17 17 18 18 20 20 19 19 17 20 19 20 23
32 37 28 24 27 30 31 31 28 27 26 25 24 23 23 21 21 22 21 18 18 19 19 19 19 20 19 19 20 20 18 18 19 20 21 22 23 21 19 18 18 21 23
26 35 32 26 26 29 29 32 35 36 32 29 28 26 26 27 27 26 24 23 22 22 20 19 19 21 22 23 23 22 21 21 21 21 21 22 24 21 19 19 19 19 21
27 21 15 36 32 32 31 37 36 34 37 32 33 31 29 29 30 27 26 26 25 24 22 21 21 21 22 23 24 24 23 24 25 24 23 24 23 21 14 16 16 17 18
25 25 32 23 20 32 24 30 39 32 42 38 36 34 31 31 32 33 31 29 28 27 26 25 23 24 24 24 23 22 22 22 23 21 20 22 18 18 14 13 16 17 19
30 30 32 30 31 34 22 29 30 25 33 37 35 35 33 34 34 34 35 33 31 30 31 29 29 28 28 27 25 24 23 22 23 22 22 21 20 20 21 20 22 21 23
38 35 34 34 31 29 34 20 15 27 33 34 37 39 35 36 38 37 36 35 34 34 35 34 34 33 34 33 29 29 25 26 28 26 24 24 24 24 26 25 27 27 26
41 40 39 39 38 35 33 33 38 34 27 25 26 36 37 41 44 41 40 39 38 39 39 37 37 37 36 36 35 32 29 32 31 29 28 26 26 28 29 29 30 29 28
43 43 40 41 41 39 36 36 33 34 32 37 36 34 35 42 44 44 44 44 43 42 42 41 41 42 41 40 40 37 36 36 36 34 32 31 31 33 36 35 34 35 34
45 46 47 45 43 43 42 40 39 38 36 36 37 41 43 39 36 42 43 44 45 46 45 44 45 46 45 46 45 43 43 41 41 41 39 37 36 37 39 39 40 40 39
54 52 51 51 50 48 46 45 44 44 44 41 40 39 40 41 42 41 34 39 43 45 48 49 47 47 47 48 49 49 48 47 47 47 45 44 43 43 43 43 44 44 43
57 56 53 54 54 54 52 50 49 49 48 49 46 45 43 43 44 45 44 43 45 46 44 46 45 42 44 49 52 52 53 53 53 51 51 49 49 48 47 49 49 48 47
53 54 55 55 55 55 56 56 55 54 54 54 55 53 50 49 48 50 50 49 50 53 50 47 45 49 50 47 48 51 56 57 57 56 55 53 52 53 53 53 51 51 50
47 46 47 48 49 50 52 53 54 57 58 59 60 60 60 57 56 56 56 55 53 53 53 52 51 52 52 52 49 48 51 60 59 54 51 54 55 54 54 54 54 52 53
45 45 46 45 45 46 47 49 51 52 55 59 62 63 65 66 64 62 62 61 60 59 57 55 52 52 54 55 52 48 46 49 53 53 53 52 53 51 49 50 52 51 53
44 46 45 45 45 46 47 49 51 51 53 54 56 60 65 68 69 69 68 68 66 66 65 63 60 58 56 56 54 53 52 53 54 52 51 51 53 51 53 52 47 48 53
48 48 47 48 49 49 48 48 50 52 55 58 61 64 66 68 70 73 75 74 73 72 71 70 68 67 64 61 60 56 56 57 57 55 56 52 53 58 58 52 49 51 55
52 51 52 54 55 55 54 55 57 59 60 61 62 63 69 73 74 75 77 80 81 80 78 76 74 73 71 69 67 65 62 59 59 62 59 58 55 53 50 51 53 55 56
56 56 57 58 59 60 60 60 62 63 64 65 67 69 70 71 76 81 83 82 84 86 85 84 82 81 79 77 74 73 71 68 65 64 63 61 59 58 58 55 53 53 55
52 54 56 58 60 61 63 65 67 68 70 72 74 75 78 79 78 79 84 88 90 90 89 91 90 86 85 83 81 80 77 75 74 71 69 66 64 62 61 59 58 58 60
51 52 54 56 59 59 60 62 65 69 72 74 77 80 82 82 81 81 79 80 86 91 93 95 94 95 93 89 87 85 83 82 80 78 76 73 71 70 68 66 62 62 63
42 44 44 45 46 49 52 57 62 67 72 76 80 83 84 85 84 83 84 83 80 82 86 91 96 97 97 96 92 90 87 84 83 82 81 79 75 75 74 72 71 69 67
39 39 41 44 47 51 56 62 69 71 75 77 75 74 74 73 73 75 78 80 82 81 82 84 88 94 98 97 93 91 90 89 87 84 83 81 78 76 77 78 77 75 74
Wind_Direction
230 233 222 214 215 210 210 206 205 209 206 189 211 194 178 193 179 194 189 195 202 195 192 198 203 195 203 202 204 209 217 223 224 231 243 251 247 255 269 282 294 298 302
226 230 229 223 222 215 210 211 207 210 209 218 203 203 203 200 194 202 205 199 201 198 191 201 209 211 221 211 208 211 221 227 228 236 244 252 256 262 274 278 279 278 290
232 230 226 224 222 225 220 211 209 212 211 208 213 206 202 205 200 206 215 209 211 205 201 202 210 219 223 222 225 222 221 229 237 244 252 257 269 278 281 285 290 297 300
221 239 228 225 223 220 219 220 220 217 213 211 213 214 213 211 202 207 212 211 214 215 207 208 212 215 222 228 231 232 233 235 242 246 253 260 267 275 275 276 287 292 295
222 234 217 221 228 225 222 221 216 219 220 220 214 217 219 217 215 213 214 212 218 225 221 216 214 218 223 230 235 240 239 238 242 250 260 266 268 270 275 284 285 286 289
237 228 229 221 234 229 226 227 221 219 214 218 222 216 217 220 222 220 215 217 218 218 221 223 224 223 223 228 234 241 246 250 249 250 256 264 274 282 287 286 281 279 278
267 276 251 237 244 233 232 229 232 227 218 211 222 220 218 221 228 227 226 223 225 226 223 221 222 228 231 231 234 237 244 251 256 259 262 266 273 279 279 276 278 277 280
271 268 276 268 261 225 245 244 230 236 229 215 216 221 221 221 225 228 229 228 225 229 231 232 231 234 236 234 236 239 242 248 254 257 257 263 265 274 270 270 276 279 282
264 261 262 265 270 275 239 217 232 236 225 223 221 222 226 231 230 230 229 230 232 232 232 235 237 240 241 241 240 242 241 244 249 253 255 260 267 270 272 271 270 269 273
270 268 270 272 273 270 272 208 220 220 234 233 234 226 224 231 235 235 235 232 233 236 236 237 239 241 243 245 240 243 243 251 253 255 259 266 271 274 276 274 273 276 278
268 268 268 270 271 269 268 271 279 282 259 250 237 229 231 234 236 237 238 239 235 236 238 240 241 242 246 249 246 244 247 253 259 258 261 264 270 273 275 276 277 277 277
265 268 269 269 272 272 268 267 262 258 261 271 270 266 246 241 237 240 242 243 243 240 240 239 242 244 244 245 249 250 252 249 252 256 258 264 268 272 276 279 281 282 282
262 265 267 265 264 266 267 265 264 262 257 254 254 262 270 271 267 244 238 245 246 246 245 241 241 244 246 248 249 251 252 254 255 255 256 256 260 264 271 276 278 282 284
264 264 263 263 263 261 261 262 262 260 261 257 254 251 251 253 255 260 250 253 253 251 248 248 248 249 250 252 254 256 256 255 253 255 257 260 262 265 267 272 275 278 281
264 264 264 263 263 262 260 258 257 258 258 262 259 256 253 252 253 253 248 248 253 252 254 253 251 250 253 255 254 255 257 257 258 259 260 260 262 264 268 271 274 277 280
259 259 260 259 259 260 261 261 259 257 257 256 258 260 256 254 253 253 252 247 245 249 247 246 250 251 253 256 257 255 256 256 258 258 260 262 265 266 267 268 271 274 275
254 253 253 253 254 254 255 257 259 258 257 257 257 257 258 257 254 253 255 254 252 251 251 249 247 249 252 253 258 258 258 257 255 257 258 261 262 263 265 268 270 272 274
253 254 254 253 252 252 252 252 253 255 259 260 258 259 259 260 259 258 256 255 255 256 254 254 253 252 252 253 255 253 255 252 254 255 257 258 262 263 266 270 270 271 272
252 254 255 257 258 258 257 257 256 255 253 253 256 259 260 259 260 261 260 259 257 256 255 255 253 251 252 253 254 253 251 251 253 255 258 262 263 262 264 273 263 262 272
250 251 252 253 255 257 259 263 265 265 264 262 259 258 256 257 258 259 260 259 259 258 258 256 254 253 252 252 253 253 252 251 251 254 257 260 260 262 267 265 262 263 272
256 257 259 260 260 263 265 269 272 272 272 271 270 268 265 262 259 256 256 257 258 258 257 257 257 256 254 252 252 252 252 253 254 254 255 255 256 260 263 262 261 263 268
262 264 267 267 267 268 271 273 273 273 274 274 274 274 272 271 266 261 258 255 255 257 258 257 256 256 255 254 251 250 250 251 250 253 256 257 256 257 260 260 261 262 262
263 266 267 269 271 272 273 274 274 276 277 277 276 275 275 274 272 267 262 259 256 256 255 256 257 255 255 254 253 252 251 250 251 251 252 255 257 258 259 261 261 262 262
267 269 271 273 275 276 277 279 280 279 279 277 276 275 275 272 269 266 263 259 257 255 254 254 254 254 253 252 252 252 251 251 250 251 251 251 252 256 258 260 259 260 262
270 273 275 276 278 281 285 289 285 286 285 285 282 278 276 274 271 267 264 262 259 255 253 250 249 249 251 250 249 250 250 249 250 250 251 251 251 252 254 256 259 260 261
274 275 275 282 288 292 297 296 293 296 294 288 284 279 275 272 270 266 262 259 257 254 251 250 247 243 243 245 245 245 246 248 248 248 249 249 249 249 251 253 255 257 259